Location: Ferques
(50.8300°N, 1.7599°E)
Time: 01:28:48
(UTC+00:00)

Sich 1 - Pass Details

Date: 19 May 2025
Orbit: 574 x 603 km, 82.5° (Epoch: 18 June)

Event Time Altitude Azimuth Distance (km) Brightness Sun altitude
Rises 22:30:38 0° 354° (N) 2,840 8.0 -17.1°
Reaches altitude 10° 22:32:56 10° 1° (N) 1,928 6.7 -17.2°
Maximum altitude 22:37:01 43° 74° (ENE) 829 3.6 -17.4°
Enters shadow 22:38:35 30° 124° (SE) 1,064 3.8 -17.5°
